User: anonymous   Login
Location: Unspecified
(0.0000°N, 0.0000°E)
Time: 02:44:29
(UTC+02:00)
Language:

SJ-6B - Orbit

View from above orbital plane
View from above orbital plane
View from above satellite
View from above satellite

Ground track
Ground track

The orbit data is extracted from the following two-line orbital elements,

1 28415U 04035C   17203.56267500 +.00000755 +00000-0 +54472-4 0  9999
2 28415 097.7441 232.9010 0052305 002.9369 357.2154 15.06228233703903
Epoch (UTC): 22 July 2017 13:30:15
Eccentricity: 0.0052305
inclination: 97.7441°
perigee height: 511 km
apogee height: 584 km
right ascension of ascending node: 232.9010°
argument of perigee: 2.9369°
revolutions per day: 15.06228233
mean anomaly at epoch: 357.2154°
orbit number at epoch: 70390

The dashed part of the orbit path shows where the satellite is in the earth's shadow,  

DLR